| time (UTC) | temp C | wind direction | speed KPH | gust KPH | rain 1hr cm | rain 24hr cm | rain mn cm | humidity % | barometer mb |
| 20260902101438 | 11 | 6 | 0.0 | 0.0 | 0.00 | 0.00 | 0.00 | 78 | 1005.2 |
| 20260902100447 | 11 | 4 | 0.0 | 0.0 | 0.00 | 0.00 | 0.00 | 78 | 1005.3 |
| 20260902093246 | 11 | 0 | 0.0 | 0.0 | 0.00 | 0.00 | 0.00 | 75 | 1004.9 |
| 20260902092241 | 11 | 356 | 0.0 | 0.0 | 0.00 | 0.00 | 0.00 | 75 | 1004.8 |
| 20260902085048 | 12 | 353 | 0.0 | 3.2 | 0.00 | 0.00 | 0.00 | 72 | 1004.6 |
| 20260902084052 | 12 | 355 | 0.0 | 3.2 | 0.00 | 0.00 | 0.00 | 71 | 1004.7 |
| 20260902083112 | 12 | 353 | 0.0 | 0.0 | 0.00 | 0.00 | 0.00 | 72 | 1004.6 |
| 20260902082103 | 13 | 354 | 0.0 | 0.0 | 0.00 | 0.00 | 0.00 | 71 | 1004.5 |
| 20260902081123 | 13 | 351 | 0.0 | 0.0 | 0.00 | 0.00 | 0.00 | 71 | 1004.6 |
| 20260902075033 | 13 | 351 | 0.0 | 0.0 | 0.00 | 0.00 | 0.00 | 69 | 1004.8 |
| 20260902074033 | 13 | 351 | 0.0 | 0.0 | 0.00 | 0.00 | 0.00 | 69 | 1004.9 |
| 20260902073031 | 14 | 352 | 0.0 | 0.0 | 0.00 | 0.00 | 0.00 | 68 | 1004.9 |
| 20260902070912 | 15 | 346 | 0.0 | 0.0 | 0.00 | 0.00 | 0.00 | 65 | 1004.8 |
| 20260902065931 | 15 | 345 | 0.0 | 0.0 | 0.00 | 0.00 | 0.00 | 64 | 1004.8 |
| 20260902064914 | 15 | 344 | 0.0 | 0.0 | 0.00 | 0.00 | 0.00 | 64 | 1004.7 |
| 20260902063840 | 16 | 342 | 0.0 | 0.0 | 0.00 | 0.00 | 0.00 | 62 | 1004.7 |
| 20260902062841 | 16 | 341 | 0.0 | 0.0 | 0.00 | 0.00 | 0.00 | 61 | 1004.7 |
| 20260902061829 | 16 | 340 | 0.0 | 0.0 | 0.00 | 0.00 | 0.00 | 59 | 1004.9 |
| 20260902060842 | 17 | 340 | 0.0 | 0.0 | 0.00 | 0.00 | 0.00 | 57 | 1005.0 |
| 20260902055855 | 17 | 340 | 0.0 | 0.0 | 0.00 | 0.00 | 0.00 | 57 | 1005.1 |
| 20260902053750 | 18 | 340 | 0.0 | 0.0 | 0.00 | 0.00 | 0.00 | 54 | 1005.2 |
| 20260902052737 | 18 | 339 | 0.0 | 0.0 | 0.00 | 0.00 | 0.00 | 52 | 1005.2 |
| 20260902051750 | 19 | 339 | 0.0 | 0.0 | 0.00 | 0.00 | 0.00 | 49 | 1005.2 |
| 20260902050806 | 20 | 340 | 0.0 | 0.0 | 0.00 | 0.00 | 0.00 | 48 | 1005.3 |
| 20260902045757 | 20 | 339 | 0.0 | 3.2 | 0.00 | 0.00 | 0.00 | 45 | 1005.4 |
| 20260902044807 | 20 | 340 | 1.6 | 6.4 | 0.00 | 0.00 | 0.00 | 45 | 1005.4 |
| 20260902043754 | 20 | 339 | 1.6 | 6.4 | 0.00 | 0.00 | 0.00 | 45 | 1005.6 |
| 20260902042802 | 20 | 339 | 1.6 | 11.3 | 0.00 | 0.00 | 0.00 | 45 | 1005.6 |
| 20260902041759 | 20 | 340 | 1.6 | 11.3 | 0.00 | 0.00 | 0.00 | 45 | 1005.6 |
| 20260902040739 | 20 | 339 | 0.0 | 0.0 | 0.00 | 0.00 | 0.00 | 46 | 1005.7 |
| 20260902035755 | 20 | 339 | 0.0 | 4.8 | 0.00 | 0.00 | 0.00 | 46 | 1005.6 |
| 20260902034728 | 20 | 339 | 0.0 | 6.4 | 0.00 | 0.00 | 0.00 | 45 | 1005.6 |
| 20260902033727 | 20 | 339 | 1.6 | 6.4 | 0.00 | 0.00 | 0.00 | 45 | 1005.5 |
| 20260902032656 | 20 | 339 | 0.0 | 0.0 | 0.00 | 0.00 | 0.00 | 46 | 1005.6 |
| 20260902031644 | 20 | 339 | 0.0 | 6.4 | 0.00 | 0.00 | 0.00 | 44 | 1005.5 |
| 20260902030646 | 21 | 338 | 0.0 | 6.4 | 0.00 | 0.00 | 0.00 | 45 | 1005.5 |
| 20260902025628 | 21 | 338 | 0.0 | 4.8 | 0.00 | 0.00 | 0.00 | 44 | 1005.4 |
| 20260902022424 | 21 | 338 | 0.0 | 6.4 | 0.00 | 0.00 | 0.00 | 43 | 1005.3 |
| 20260902021443 | 22 | 338 | 0.0 | 6.4 | 0.00 | 0.00 | 0.00 | 41 | 1005.2 |
| 20260902020428 | 22 | 338 | 0.0 | 0.0 | 0.00 | 0.00 | 0.00 | 39 | 1005.1 |
| 20260902015443 | 22 | 338 | 0.0 | 0.0 | 0.00 | 0.00 | 0.00 | 38 | 1005.0 |
| 20260902014423 | 22 | 338 | 0.0 | 0.0 | 0.00 | 0.00 | 0.00 | 37 | 1005.0 |
| 20260902013358 | 23 | 338 | 0.0 | 3.2 | 0.00 | 0.00 | 0.00 | 37 | 1005.0 |
| 20260902012340 | 23 | 338 | 0.0 | 3.2 | 0.00 | 0.00 | 0.00 | 37 | 1005.1 |
| 20260902011308 | 23 | 338 | 1.6 | 3.2 | 0.00 | 0.00 | 0.00 | 36 | 1005.1 |
| 20260902010244 | 24 | 338 | 0.0 | 3.2 | 0.00 | 0.00 | 0.00 | 35 | 1005.1 |
| 20260902005305 | 25 | 340 | 0.0 | 3.2 | 0.00 | 0.00 | 0.00 | 34 | 1005.0 |
| 20260902004242 | 25 | 342 | 0.0 | 0.0 | 0.00 | 0.00 | 0.00 | 33 | 1005.0 |
| 20260902003218 | 25 | 341 | 0.0 | 0.0 | 0.00 | 0.00 | 0.00 | 34 | 1005.0 |
| 20260902002229 | 25 | 340 | 0.0 | 0.0 | 0.00 | 0.00 | 0.00 | 34 | 1005.1 |
| 20260902001212 | 24 | 340 | 0.0 | 0.0 | 0.00 | 0.00 | 0.00 | 35 | 1005.0 |
| 20260902000204 | 24 | 341 | 0.0 | 0.0 | 0.00 | 0.00 | 0.00 | 34 | 1004.9 |
| 20260901235222 | 24 | 342 | 0.0 | 0.0 | 0.00 | 0.00 | 0.00 | 35 | 1005.0 |
| 20260901234210 | 24 | 342 | 0.0 | 0.0 | 0.00 | 0.00 | 0.00 | 36 | 1005.1 |
| 20260901232051 | 25 | 355 | 0.0 | 4.8 | 0.00 | 0.00 | 0.00 | 37 | 1005.3 |
| 20260901231029 | 25 | 344 | 0.0 | 3.2 | 0.00 | 0.00 | 0.00 | 38 | 1005.4 |
| 20260901230010 | 24 | 340 | 0.0 | 1.6 | 0.00 | 0.00 | 0.00 | 41 | 1005.4 |
| 20260901223748 | 24 | 337 | 0.0 | 0.0 | 0.00 | 0.00 | 0.00 | 38 | 1005.9 |
| 20260901222747 | 25 | 338 | 0.0 | 0.0 | 0.00 | 0.00 | 0.00 | 36 | 1006.1 |
| 20260901221748 | 25 | 338 | 0.0 | 6.4 | 0.00 | 0.00 | 0.00 | 31 | 1006.2 |
| 20260901220727 | 25 | 338 | 0.0 | 3.2 | 0.00 | 0.00 | 0.00 | 37 | 1006.3 |
| 20260901215717 | 25 | 339 | 0.0 | 3.2 | 0.00 | 0.00 | 0.00 | 31 | 1006.4 |
| 20260901214645 | 25 | 340 | 0.0 | 3.2 | 0.00 | 0.00 | 0.00 | 35 | 1006.4 |
| 20260901212500 | 26 | 30 | 0.0 | 1.6 | 0.00 | 0.00 | 0.00 | 33 | 1006.5 |
| 20260901211443 | 26 | 56 | 0.0 | 3.2 | 0.00 | 0.00 | 0.00 | 33 | 1006.5 |
| 20260901210501 | 26 | 59 | 0.0 | 4.8 | 0.00 | 0.00 | 0.00 | 32 | 1006.5 |
| 20260901205515 | 27 | 190 | 0.0 | 9.7 | 0.00 | 0.00 | 0.00 | 29 | 1006.5 |
| 20260901204533 | 27 | 191 | 0.0 | 3.2 | 0.00 | 0.00 | 0.00 | 27 | 1006.4 |
| 20260901203547 | 27 | 194 | 0.0 | 3.2 | 0.00 | 0.00 | 0.00 | 29 | 1006.5 |
| 20260901202533 | 27 | 194 | 0.0 | 6.4 | 0.00 | 0.00 | 0.00 | 29 | 1006.7 |
| 20260901201527 | 27 | 193 | 1.6 | 8.0 | 0.00 | 0.00 | 0.00 | 26 | 1006.8 |
| 20260901200455 | 27 | 194 | 1.6 | 8.0 | 0.00 | 0.00 | 0.00 | 26 | 1006.9 |
| 20260901195446 | 27 | 194 | 1.6 | 9.7 | 0.00 | 0.00 | 0.00 | 30 | 1006.9 |
| 20260901194452 | 26 | 194 | 0.0 | 9.7 | 0.00 | 0.00 | 0.00 | 30 | 1007.1 |
| 20260901193458 | 26 | 194 | 1.6 | 6.4 | 0.00 | 0.00 | 0.00 | 30 | 1007.3 |
| 20260901192514 | 26 | 194 | 0.0 | 8.0 | 0.00 | 0.00 | 0.00 | 27 | 1007.6 |
| 20260901191448 | 26 | 193 | 0.0 | 8.0 | 0.00 | 0.00 | 0.00 | 28 | 1007.7 |
| 20260901190432 | 26 | 190 | 1.6 | 11.3 | 0.00 | 0.00 | 0.00 | 26 | 1007.8 |
| 20260901185436 | 26 | 191 | 1.6 | 11.3 | 0.00 | 0.00 | 0.00 | 27 | 1007.8 |
| 20260901183322 | 25 | 193 | 0.0 | 1.6 | 0.00 | 0.00 | 0.00 | 30 | 1008.1 |
| 20260901181145 | 24 | 193 | 0.0 | 1.6 | 0.00 | 0.00 | 0.00 | 33 | 1008.5 |
| 20260901180156 | 23 | 323 | 0.0 | 3.2 | 0.00 | 0.00 | 0.00 | 34 | 1008.6 |
| 20260901175143 | 23 | 0 | 0.0 | 1.6 | 0.00 | 0.00 | 0.00 | 40 | 1008.8 |
| 20260901174149 | 23 | 355 | 0.0 | 12.9 | 0.00 | 0.00 | 0.00 | 38 | 1008.8 |
| 20260901173152 | 22 | 33 | 1.6 | 12.9 | 0.00 | 0.00 | 0.00 | 35 | 1009.0 |
| 20260901172129 | 21 | 345 | 0.0 | 0.0 | 0.00 | 0.00 | 0.00 | 41 | 1009.0 |
| 20260901171133 | 21 | 340 | 0.0 | 0.0 | 0.00 | 0.00 | 0.00 | 42 | 1009.1 |
| 20260901165027 | 19 | 337 | 0.0 | 4.8 | 0.00 | 0.00 | 0.00 | 44 | 1009.2 |
| 20260901164036 | 18 | 336 | 0.0 | 9.7 | 0.00 | 0.00 | 0.00 | 47 | 1009.4 |
| 20260901163015 | 18 | 336 | 0.0 | 9.7 | 0.00 | 0.00 | 0.00 | 49 | 1009.4 |
| 20260901162004 | 18 | 336 | 0.0 | 3.2 | 0.00 | 0.00 | 0.00 | 51 | 1009.5 |
| 20260901161016 | 18 | 336 | 0.0 | 0.0 | 0.00 | 0.00 | 0.00 | 57 | 1009.5 |
| 20260901160016 | 18 | 336 | 0.0 | 0.0 | 0.00 | 0.00 | 0.00 | 54 | 1009.6 |
| 20260901155040 | 18 | 336 | 0.0 | 4.8 | 0.00 | 0.00 | 0.00 | 55 | 1009.6 |
| 20260901154051 | 18 | 337 | 1.6 | 4.8 | 0.00 | 0.00 | 0.00 | 50 | 1009.7 |
| 20260901153019 | 18 | 337 | 3.2 | 6.4 | 0.00 | 0.00 | 0.00 | 52 | 1009.7 |
| 20260901152020 | 17 | 336 | 1.6 | 6.4 | 0.00 | 0.00 | 0.00 | 51 | 1009.7 |
| 20260901151040 | 16 | 336 | 3.2 | 6.4 | 0.00 | 0.00 | 0.00 | 52 | 1009.9 |
| 20260901150014 | 15 | 192 | 3.2 | 4.8 | 0.00 | 0.00 | 0.00 | 56 | 1010.0 |
| 20260901145007 | 15 | 192 | 1.6 | 4.8 | 0.00 | 0.00 | 0.00 | 57 | 1010.0 |
| 20260901143949 | 14 | 193 | 1.6 | 4.8 | 0.00 | 0.00 | 0.00 | 60 | 1010.2 |
| 20260901142916 | 13 | 193 | 1.6 | 4.8 | 0.00 | 0.00 | 0.00 | 61 | 1010.3 |
| 20260901140838 | 12 | 193 | 3.2 | 6.4 | 0.00 | 0.00 | 0.00 | 65 | 1010.2 |
| 20260901135857 | 11 | 193 | 1.6 | 6.4 | 0.00 | 0.00 | 0.00 | 66 | 1010.3 |
| 20260901134904 | 11 | 193 | 1.6 | 6.4 | 0.00 | 0.00 | 0.00 | 68 | 1010.4 |
| 20260901133842 | 10 | 193 | 0.0 | 4.8 | 0.00 | 0.00 | 0.00 | 70 | 1010.4 |
| 20260901132853 | 10 | 193 | 0.0 | 4.8 | 0.00 | 0.00 | 0.00 | 70 | 1010.4 |
| 20260901124514 | 9 | 193 | 0.0 | 0.0 | 0.00 | 0.00 | 0.00 | 73 | 1010.3 |
| 20260901123502 | 9 | 193 | 0.0 | 0.0 | 0.00 | 0.00 | 0.00 | 75 | 1010.3 |
| 20260901122501 | 9 | 193 | 0.0 | 0.0 | 0.00 | 0.00 | 0.00 | 75 | 1010.2 |
| 20260901121447 | 9 | 193 | 0.0 | 0.0 | 0.00 | 0.00 | 0.00 | 76 | 1010.2 |
| 20260901120509 | 9 | 193 | 0.0 | 0.0 | 0.00 | 0.00 | 0.00 | 75 | 1010.2 |
| 20260901115517 | 9 | 193 | 0.0 | 0.0 | 0.00 | 0.00 | 0.00 | 76 | 1010.2 |
| 20260901113315 | 9 | 193 | 0.0 | 0.0 | 0.00 | 0.00 | 0.00 | 77 | 1010.5 |
| 20260901112317 | 9 | 193 | 0.0 | 0.0 | 0.00 | 0.00 | 0.00 | 75 | 1010.5 |
| 20260901110229 | 10 | 193 | 0.0 | 0.0 | 0.00 | 0.00 | 0.00 | 74 | 1010.8 |
| 20260901105212 | 10 | 193 | 0.0 | 0.0 | 0.00 | 0.00 | 0.00 | 72 | 1010.9 |
| 20260901104205 | 10 | 193 | 0.0 | 0.0 | 0.00 | 0.00 | 0.00 | 71 | 1010.9 |
| 20260901103137 | 10 | 193 | 0.0 | 0.0 | 0.00 | 0.00 | 0.00 | 72 | 1011.1 |